Florence, Italy

4:00 AM CEST on March 30, 2017 (GMT +0200)
Peretola

Weather History for LIRQ - September, 2013

Change the Weather History Date:

Wednesday, September 18, 2013

  Actual Average Record
Temperature  
Mean Temperature 63 °F -  
Max Temperature 73 °F 74 °F 84 °F (1997)
Min Temperature 53 °F 53 °F 46 °F (2001)
Degree Days  
Heating Degree Days 2    
Growing Degree Days 13 (Base 50)    
Moisture  
Dew Point 56 °F    
Average Humidity 76    
Maximum Humidity 100    
Minimum Humidity 53    
Precipitation  
Precipitation 0.00 in 0.11 in - ()
Sea Level Pressure  
Sea Level Pressure 29.72 in    
Wind  
Wind Speed 4 mph ()    
Max Wind Speed 12 mph    
Max Gust Speed -    
Visibility 6.2 miles    
Events      
Averages and records for this station are not official NWS values.
T = Trace of Precipitation, MM = Missing Value Source: Averaged Metar Reports

Daily Weather History Graph

Daily Weather History Graph

Search for Another Location

Airport or City:

Trip Planner

Search our weather history database for the weather conditions in past years. The results will help you decide how hot, cold, wet, or windy it might be!

Date:

Astronomy

Sep. 18, 2013 Rise Set
Actual Time 6:57 AM CEST 7:20 PM CEST
Civil Twilight 6:29 AM CEST 7:48 PM CEST
Nautical Twilight 5:55 AM CEST 8:22 PM CEST
Astronomical Twilight 5:20 AM CEST 8:57 PM CEST
Moon 6:33 PM CEST (9/18) 5:40 AM CEST (9/18)
Length of Visible Light 13h 19m
Length of Day
12h 22m
Waxing Gibbous, 99% of the Moon is Illuminated
Sep 18
Waxing Gibbous
Sep 19
Full
Sep 27
Last Quarter
Oct 5
New
Oct 12
First Quarter

Hourly Weather History & Observations

Time (CEST) Temp. Dew Point Humidity Pressure Visibility Wind Dir Wind Speed Gust Speed Precip Events Conditions
12:20 AM 60.8 °F 55.4 °F 82% 29.74 in - East 5.8 mph - N/A   Clear
12:50 AM 60.8 °F 55.4 °F 82% 29.74 in - East 6.9 mph - N/A   Clear
1:20 AM 59.0 °F 55.4 °F 88% 29.74 in - East 4.6 mph - N/A   Clear
1:50 AM 59.0 °F 53.6 °F 82% 29.74 in - East 5.8 mph - N/A   Clear
2:20 AM 59.0 °F 55.4 °F 88% 29.74 in - ENE 1.2 mph - N/A   Clear
2:50 AM 57.2 °F 55.4 °F 94% 29.74 in - Variable 2.3 mph - N/A   Clear
3:20 AM 57.2 °F 53.6 °F 88% 29.74 in - Variable 2.3 mph - N/A   Clear
3:50 AM 55.4 °F 53.6 °F 94% 29.74 in - ENE 3.5 mph - N/A   Clear
4:20 AM 55.4 °F 53.6 °F 94% 29.74 in - Variable 1.2 mph - N/A   Clear
4:50 AM 55.4 °F 53.6 °F 94% 29.74 in - Variable 1.2 mph - N/A   Clear
5:20 AM 55.4 °F 53.6 °F 94% 29.74 in 6.2 mi Variable 2.3 mph - N/A   Partly Cloudy
5:50 AM 55.4 °F 53.6 °F 94% 29.74 in 6.2 mi Calm Calm - N/A   Scattered Clouds
6:20 AM 55.4 °F 53.6 °F 94% 29.74 in 6.2 mi Variable 1.2 mph - N/A   Partly Cloudy
6:50 AM 53.6 °F 53.6 °F 100% 29.74 in 6.2 mi Calm Calm - N/A   Partly Cloudy
7:20 AM 53.6 °F 53.6 °F 100% 29.74 in 6.2 mi Calm Calm - N/A   Partly Cloudy
7:50 AM 55.4 °F 55.4 °F 100% 29.74 in - Calm Calm - N/A   Clear
8:20 AM 57.2 °F 55.4 °F 94% 29.74 in - Variable 1.2 mph - N/A   Clear
8:50 AM 59.0 °F 55.4 °F 88% 29.74 in 6.2 mi Variable 2.3 mph - N/A   Partly Cloudy
9:20 AM 62.6 °F 55.4 °F 77% 29.74 in 6.2 mi Calm Calm - N/A   Partly Cloudy
9:50 AM 64.4 °F 55.4 °F 73% 29.74 in - Variable 2.3 mph - N/A   Clear
10:20 AM 66.2 °F 57.2 °F 73% 29.74 in - Variable 3.5 mph - N/A   Clear
10:50 AM 68.0 °F 57.2 °F 68% 29.77 in 6.2 mi Variable 3.5 mph - N/A   Partly Cloudy
11:20 AM 69.8 °F 57.2 °F 64% 29.74 in 6.2 mi Variable 3.5 mph - N/A   Scattered Clouds
12:20 PM 69.8 °F 57.2 °F 64% 29.74 in 6.2 mi West 5.8 mph - N/A   Scattered Clouds
12:50 PM 71.6 °F 55.4 °F 57% 29.74 in 6.2 mi SW 8.1 mph - N/A   Partly Cloudy
1:20 PM 71.6 °F 53.6 °F 53% 29.71 in 6.2 mi SW 11.5 mph - N/A   Partly Cloudy
1:50 PM 73.4 °F 55.4 °F 53% 29.71 in 6.2 mi SSW 9.2 mph - N/A   Scattered Clouds
2:20 PM 71.6 °F 55.4 °F 57% 29.71 in 6.2 mi WSW 11.5 mph - N/A   Scattered Clouds
2:50 PM 71.6 °F 57.2 °F 60% 29.71 in 6.2 mi West 9.2 mph - N/A   Scattered Clouds
3:20 PM 71.6 °F 57.2 °F 60% 29.71 in 6.2 mi West 6.9 mph - N/A   Scattered Clouds
3:50 PM 71.6 °F 57.2 °F 60% 29.71 in 6.2 mi West 8.1 mph - N/A   Scattered Clouds
4:20 PM 71.6 °F 57.2 °F 60% 29.71 in 6.2 mi West 6.9 mph - N/A   Scattered Clouds
4:50 PM 71.6 °F 55.4 °F 57% 29.68 in 6.2 mi WSW 4.6 mph - N/A   Mostly Cloudy
5:20 PM 69.8 °F 57.2 °F 64% 29.68 in 6.2 mi West 5.8 mph - N/A   Mostly Cloudy
5:50 PM 69.8 °F 57.2 °F 64% 29.68 in 6.2 mi West 4.6 mph - N/A   Mostly Cloudy
6:20 PM 69.8 °F 57.2 °F 64% 29.68 in 6.2 mi West 3.5 mph - N/A   Mostly Cloudy
6:50 PM 69.8 °F 57.2 °F 64% 29.68 in 6.2 mi Variable 2.3 mph - N/A   Mostly Cloudy
7:20 PM 68.0 °F 57.2 °F 68% 29.68 in 6.2 mi West 3.5 mph - N/A   Mostly Cloudy
7:50 PM 68.0 °F 59.0 °F 73% 29.68 in 6.2 mi West 2.3 mph - N/A   Mostly Cloudy
8:20 PM 69.8 °F 55.4 °F 60% 29.68 in 6.2 mi WSW 3.5 mph - N/A   Mostly Cloudy
8:50 PM 68.0 °F 57.2 °F 68% 29.68 in 6.2 mi SW 3.5 mph - N/A   Mostly Cloudy
9:20 PM 66.2 °F 57.2 °F 73% 29.71 in 6.2 mi NNW 3.5 mph - N/A   Mostly Cloudy
9:50 PM 66.2 °F 59.0 °F 78% 29.68 in 6.2 mi Variable 1.2 mph - N/A   Mostly Cloudy
10:20 PM 66.2 °F 59.0 °F 78% 29.71 in 6.2 mi Variable 2.3 mph - N/A   Mostly Cloudy
10:50 PM 66.2 °F 59.0 °F 78% 29.71 in 6.2 mi Variable 1.2 mph - N/A   Mostly Cloudy
11:20 PM 66.2 °F 59.0 °F 78% 29.68 in 6.2 mi East 3.5 mph - N/A   Mostly Cloudy
11:50 PM 64.4 °F 59.0 °F 83% 29.68 in 6.2 mi ENE 3.5 mph - N/A   Mostly Cloudy